• In United Kingdom
  • List of Countries
  • For 7 days
  • Water Temperature
  • Satellite Maps
  • Weather Map
  • Weather Widgets
  • user-avatar
    Login

    Hourly Weather Seyðisfjörður

    Today, 23 September, Sunday

    Time Temperature Precipitation Wind Pressure Humidity
    00:00 -1°C° 0 mm 3 mps 757 mmHg 87%
    01:00 -1°C° 0 mm 3 mps 757 mmHg 87%
    02:00 -1°C° 0 mm 3 mps 757 mmHg 86%
    03:00 -1°C° 0 mm 3 mps 757 mmHg 86%
    04:00 -2°C° 0 mm 3 mps 757 mmHg 86%
    05:00 -2°C° 0 mm 3 mps 757 mmHg 84%
    06:00 -1°C° 0 mm 3 mps 758 mmHg 81%
    07:00 -1°C° 0 mm 3 mps 758 mmHg 78%
    08:00 +1°C° 0 mm 2 mps 758 mmHg 75%
    09:00 +1°C° 0 mm 3 mps 758 mmHg 70%
    10:00 +2°C° 0 mm 3 mps 758 mmHg 65%
    11:00 +3°C° 0 mm 3 mps 758 mmHg 61%
    12:00 +4°C° 0 mm 3 mps 758 mmHg 59%
    13:00 +4°C° 0 mm 3 mps 758 mmHg 57%
    14:00 +5°C° 0 mm 4 mps 758 mmHg 55%
    15:00 +4°C° 0 mm 4 mps 758 mmHg 59%
    16:00 +4°C° 0 mm 4 mps 758 mmHg 63%
    17:00 +3°C° 0 mm 4 mps 758 mmHg 67%
    18:00 +1°C° 0 mm 4 mps 758 mmHg 69%
    19:00 +1°C° 0 mm 4 mps 758 mmHg 71%
    20:00 0°C° 0 mm 4 mps 758 mmHg 72%
    21:00 0°C° 0 mm 4 mps 758 mmHg 72%
    22:00 0°C° 0 mm 4 mps 758 mmHg 71%
    23:00 0°C° 0 mm 4 mps 758 mmHg 70%

    Tomorrow, 24 September, Monday

    Time Temperature Precipitation Wind Pressure Humidity
    00:00 0°C° 0 mm 4 mps 757 mmHg 69%
    01:00 0°C° 0 mm 4 mps 757 mmHg 68%
    02:00 0°C° 0 mm 4 mps 757 mmHg 67%
    03:00 0°C° 0 mm 4 mps 756 mmHg 68%
    04:00 0°C° 0 mm 4 mps 756 mmHg 68%
    05:00 0°C° 0 mm 4 mps 756 mmHg 68%
    06:00 +1°C° 0 mm 5 mps 755 mmHg 68%
    07:00 +2°C° 0 mm 5 mps 754 mmHg 69%
    08:00 +2°C° 0 mm 5 mps 753 mmHg 69%
    09:00 +3°C° 0.1 mm 7 mps 752 mmHg 74%
    10:00 +4°C° 0.1 mm 8 mps 751 mmHg 80%
    11:00 +5°C° 0.1 mm 9 mps 750 mmHg 85%
    12:00 +6°C° 0.1 mm 10 mps 749 mmHg 77%
    13:00 +7°C° 0.1 mm 11 mps 748 mmHg 69%
    14:00 +7°C° 0.1 mm 12 mps 748 mmHg 61%
    15:00 +6°C° 0 mm 11 mps 748 mmHg 60%
    16:00 +5°C° 0 mm 10 mps 748 mmHg 60%
    17:00 +2°C° 0 mm 10 mps 748 mmHg 59%
    18:00 +2°C° 0 mm 10 mps 748 mmHg 61%
    19:00 +1°C° 0 mm 10 mps 749 mmHg 64%
    20:00 +1°C° 0 mm 10 mps 749 mmHg 66%
    21:00 0°C° 0 mm 10 mps 750 mmHg 65%
    22:00 0°C° 0 mm 10 mps 750 mmHg 65%
    23:00 0°C° 0 mm 9 mps 750 mmHg 65%

    Day after tomorrow, 25 September, Tuesday

    Time Temperature Precipitation Wind Pressure Humidity
    00:00 0°C° 0 mm 8 mps 750 mmHg 66%
    01:00 0°C° 0 mm 7 mps 750 mmHg 67%
    02:00 +1°C° 0 mm 6 mps 750 mmHg 68%
    03:00 +1°C° 0 mm 6 mps 749 mmHg 70%
    04:00 +1°C° 0 mm 5 mps 748 mmHg 72%
    05:00 +1°C° 0 mm 4 mps 747 mmHg 73%
    06:00 +1°C° 0.6 mm 4 mps 746 mmHg 78%
    07:00 +1°C° 0.6 mm 4 mps 745 mmHg 83%
    08:00 +3°C° 0.6 mm 3 mps 743 mmHg 87%
    09:00 +3°C° 1.1 mm 3 mps 742 mmHg 89%
    10:00 +3°C° 1.1 mm 3 mps 741 mmHg 92%
    11:00 +3°C° 1.1 mm 3 mps 740 mmHg 94%
    12:00 +4°C° 0.5 mm 2 mps 740 mmHg 94%
    13:00 +4°C° 0.5 mm 2 mps 740 mmHg 94%
    14:00 +5°C° 0.5 mm 2 mps 739 mmHg 94%
    15:00 +3°C° 0.3 mm 3 mps 740 mmHg 89%
    16:00 +3°C° 0.3 mm 4 mps 740 mmHg 85%
    17:00 +3°C° 0.3 mm 4 mps 741 mmHg 80%
    18:00 +1°C° 0.1 mm 4 mps 741 mmHg 78%
    19:00 0°C° 0.1 mm 4 mps 742 mmHg 76%
    20:00 0°C° 0.1 mm 4 mps 742 mmHg 74%
    21:00 0°C° 0 mm 4 mps 742 mmHg 74%
    22:00 +1°C° 0 mm 5 mps 743 mmHg 74%
    23:00 +1°C° 0 mm 5 mps 743 mmHg 74%

    26 September, Wednesday

    Time Temperature Precipitation Wind Pressure Humidity
    00:00 +1°C° 0 mm 5 mps 742 mmHg 75%
    01:00 +1°C° 0 mm 5 mps 742 mmHg 75%
    02:00 +1°C° 0 mm 5 mps 742 mmHg 75%
    03:00 +1°C° 0 mm 5 mps 742 mmHg 76%
    04:00 0°C° 0 mm 5 mps 742 mmHg 77%
    05:00 0°C° 0 mm 5 mps 742 mmHg 78%
    06:00 +1°C° 0 mm 6 mps 743 mmHg 77%
    07:00 +1°C° 0 mm 6 mps 743 mmHg 76%
    08:00 +2°C° 0 mm 6 mps 743 mmHg 75%
    09:00 +2°C° 0 mm 6 mps 744 mmHg 76%
    10:00 +3°C° 0 mm 6 mps 744 mmHg 78%
    11:00 +5°C° 0 mm 5 mps 745 mmHg 79%
    12:00 +5°C° 0 mm 5 mps 745 mmHg 79%
    13:00 +5°C° 0 mm 5 mps 745 mmHg 79%
    14:00 +5°C° 0 mm 5 mps 746 mmHg 79%
    15:00 +4°C° 0 mm 4 mps 746 mmHg 79%
    16:00 +4°C° 0 mm 4 mps 746 mmHg 80%
    17:00 +3°C° 0 mm 4 mps 747 mmHg 81%
    18:00 +3°C° 0 mm 4 mps 747 mmHg 82%
    19:00 +2°C° 0 mm 3 mps 748 mmHg 83%
    20:00 +1°C° 0 mm 3 mps 748 mmHg 84%
    21:00 +1°C° 0 mm 3 mps 749 mmHg 83%
    22:00 +1°C° 0 mm 3 mps 749 mmHg 83%
    23:00 +1°C° 0 mm 3 mps 749 mmHg 83%

    27 September, Thursday

    Time Temperature Precipitation Wind Pressure Humidity
    00:00 +1°C° 0 mm 3 mps 750 mmHg 83%
    01:00 0°C° 0 mm 3 mps 750 mmHg 83%
    02:00 0°C° 0 mm 3 mps 750 mmHg 83%
    03:00 0°C° 0 mm 3 mps 750 mmHg 83%
    04:00 0°C° 0 mm 3 mps 751 mmHg 83%
    05:00 0°C° 0 mm 3 mps 751 mmHg 83%
    06:00 +1°C° 0 mm 3 mps 751 mmHg 81%
    07:00 +1°C° 0 mm 3 mps 752 mmHg 79%
    08:00 +1°C° 0 mm 3 mps 753 mmHg 77%
    09:00 +2°C° 0 mm 3 mps 753 mmHg 77%
    10:00 +3°C° 0 mm 3 mps 753 mmHg 76%
    11:00 +3°C° 0 mm 3 mps 754 mmHg 76%
    12:00 +3°C° 0.1 mm 3 mps 754 mmHg 77%
    13:00 +3°C° 0.1 mm 3 mps 755 mmHg 79%
    14:00 +3°C° 0.1 mm 3 mps 755 mmHg 81%
    15:00 +4°C° 0 mm 2 mps 755 mmHg 81%
    16:00 +3°C° 0 mm 2 mps 756 mmHg 82%
    17:00 +3°C° 0 mm 2 mps 756 mmHg 83%
    18:00 +3°C° 0 mm 2 mps 756 mmHg 82%
    19:00 +2°C° 0 mm 2 mps 757 mmHg 82%
    20:00 +1°C° 0 mm 3 mps 757 mmHg 81%
    21:00 +1°C° 0 mm 3 mps 757 mmHg 81%
    22:00 +1°C° 0 mm 3 mps 758 mmHg 81%
    23:00 0°C° 0 mm 4 mps 758 mmHg 80%

    28 September, Friday

    Time Temperature Precipitation Wind Pressure Humidity
    00:00 0°C° 0 mm 4 mps 758 mmHg 79%
    01:00 0°C° 0 mm 4 mps 758 mmHg 78%
    02:00 0°C° 0 mm 4 mps 758 mmHg 77%
    03:00 0°C° 0 mm 4 mps 757 mmHg 75%
    04:00 0°C° 0 mm 4 mps 757 mmHg 73%
    05:00 0°C° 0 mm 4 mps 757 mmHg 70%
    06:00 +1°C° 0 mm 4 mps 757 mmHg 69%
    07:00 +1°C° 0 mm 4 mps 756 mmHg 67%
    08:00 +3°C° 0 mm 4 mps 755 mmHg 65%
    09:00 +2°C° 0.3 mm 5 mps 754 mmHg 68%
    10:00 +2°C° 0.3 mm 6 mps 753 mmHg 72%
    11:00 +3°C° 0.3 mm 6 mps 753 mmHg 75%
    12:00 +3°C° 0.3 mm 7 mps 751 mmHg 80%
    13:00 +4°C° 0.3 mm 7 mps 750 mmHg 85%
    14:00 +5°C° 0.3 mm 8 mps 749 mmHg 90%
    15:00 +5°C° 0 mm 8 mps 748 mmHg 90%
    16:00 +4°C° 0 mm 8 mps 747 mmHg 90%
    17:00 +4°C° 0 mm 8 mps 746 mmHg 90%
    18:00 +3°C° 0 mm 9 mps 745 mmHg 90%
    19:00 +3°C° 0 mm 9 mps 744 mmHg 91%
    20:00 +3°C° 0 mm 9 mps 744 mmHg 92%
    21:00 +3°C° 0 mm 9 mps 742 mmHg 93%
    22:00 +4°C° 0 mm 8 mps 741 mmHg 93%
    23:00 +4°C° 0 mm 8 mps 740 mmHg 94%
    Show more